SCP
0 0 0 0 0 0 0 0 0 0 0 0 0 0 0 0 0 0 0 0 0 0 0 0 0 0 0 0 0 0 0 0 0 0 0 0 0 0 0 0 0 0 0 0 0 0 0 0 0 0 0 0 0 0
0 0 0 0 0 0 0 0 0 0 0 0 -0 0 1 0 0 0 0 0 0 0 0 0 0 0 0 0 0 0 0 0 0 0 0 0 0 0 0 0 0 0 0 0 0 0 0 0 0 0 0 0 0 0
0 0 0 -0 -0 -0 -0 0 0 0 0 0 -0 0 0 0 0 0 0 0 0 0 0 0 0 0 0 0 0 0 0 0 0 0 0 0 0 0 0 0 0 0 0 0 0 0 0 0 0 0 0 0 0 0
-0 -0 0 0 0 0 0 0 0 0 0 0 0 0 0 0 0 0 0 0 0 0 0 0 0 0 0 0 0 0 0 0 0 0 0 0 0 0 0 0 0 0 0 0 0 0 0 0 0 0 0 0 0 0
0 -0 0 -0 0 0 -0 0 0 0 0 0 0 0 0 0 0 0 0 0 0 0 0 0 0 0 0 0 0 0 0 0 0 0 0 0 0 0 0 0 0 0 0 0 0 0 0 0 0 0 0 0 0 0
0 0 -0 -0 0 0 0 -0 0 0 0 0 -0 0 0 0 0 0 0 0 0 0 0 0 0 0 0 0 0 0 0 0 0 0 0 0 0 0 0 0 0 0 0 0 0 0 0 0 0 0 0 0 0 0
0 0 0 -0 -0 -0 0 0 0 0 -0 0 0 0 0 0 0 0 0 0 0 0 0 0 0 0 0 0 0 0 0 0 0 0 0 0 0 0 0 0 0 0 0 0 0 0 0 0 0 0 0 0 0 0
0 0 -0 0 -0 -0 0 0 0 -0 -0 -0 0 0 0 0 0 0 0 0 0 0 0 0 0 0 0 0 0 0 0 0 0 0 0 0 0 0 0 0 0 0 0 0 0 0 0 0 0 0 0 0 0 0
0 0 -0 -0 -0 -0 -0 0 -0 -0 -0 0 0 0 0 0 0 0 0 0 0 0 0 0 0 0 0 0 0 0 0 0 0 0 0 0 0 0 0 0 0 0 0 0 0 0 0 0 0 0 0 0 0 0
-0 -0 -0 0 0 -0 -0 0 -0 -0 0 0 0 0 0 0 0 0 0 0 0 0 0 0 0 0 0 0 0 0 0 0 0 0 0 0 0 0 0 0 0 0 0 0 0 0 0 0 0 0 0 0 0 0
-0 -0 -0 0 -0 0 0 0 0 0 0 0 0 0 0 0 0 0 0 0 0 0 0 0 0 0 0 0 0 0 0 0 0 0 0 0 0 0 0 0 0 0 0 0 0 0 0 0 0 0 0 0 0 0
-0 -0 -0 0 -0 -0 0 0 0 0 0 0 0 0 0 0 0 0 0 0 0 0 0 0 0 0 0 0 0 0 0 0 0 0 0 0 0 0 0 0 0 0 0 0 0 0 0 0 0 0 0 0 0 0
-0 0 -0 0 -0 0 0 0 0 0 0 0 0 0 0 0 0 0 0 0 0 0 0 0 0 0 0 0 0 0 0 0 0 0 0 0 0 0 0 0 0 0 0 0 0 0 0 0 0 0 0 0 0 0
0 -0 -0 -0 -0 0 0 -0 0 0 0 0 0 0 0 0 0 0 0 0 0 0 0 0 0 0 0 0 0 0 0 0 0 0 0 0 0 0 0 0 0 0 0 0 0 0 0 0 0 0 0 0 0 0
0 0 -0 -0 -0 -0 0 0 0 0 0 0 0 0 0 0 0 0 0 0 0 0 0 0 0 0 0 0 0 0 0 0 0 0 0 0 0 0 0 0 0 0 0 0 0 0 0 0 0 0 0 0 0 0
0 0 0 -0 -0 -0 0 0 0 0 0 0 0 0 0 0 0 0 0 0 0 0 0 0 0 0 0 0 0 0 0 0 0 0 0 0 0 0 0 0 0 0 0 0 0 0 0 0 0 0 0 0 0 0
0 0 -0 0 0 0 -0 0 0 0 0 0 0 0 0 0 0 0 0 0 0 0 0 0 0 0 0 0 0 0 0 0 0 0 0 0 0 0 0 0 0 0 0 0 0 0 0 0 0 0 0 0 0 0
0 0 -0 -0 -0 0 0 0 0 0 0 0 0 0 0 0 0 0 0 0 0 0 0 0 0 0 0 0 0 0 0 0 0 0 0 0 0 0 0 0 0 0 0 0 0 0 0 0 0 0 0 0 0 0
0 0 -0 -0 0 0 0 0 0 0 0 0 0 0 0 0 0 0 0 0 0 0 0 0 0 0 0 0 0 0 0 0 0 0 0 0 0 0 0 0 0 0 0 0 0 0 0 0 0 0 0 0 0 0
-0 -0 -0 -0 -0 0 0 0 0 0 0 0 0 0 0 0 0 0 0 0 0 0 0 0 0 0 0 0 0 0 0 0 0 0 0 0 0 0 0 0 0 0 0 0 0 0 0 0 0 0 0 0 0 0
0 0 -0 0 -0 -0 -0 0 0 0 0 0 0 0 0 0 0 0 0 0 0 0 0 0 0 0 0 0 0 0 0 0 0 0 0 0 0 0 0 0 0 0 0 0 0 0 0 0 0 0 0 0 0 0
0 0 0 0 0 0 -0 0 0 0 0 0 0 0 0 0 0 0 0 0 0 0 0 0 0 0 0 0 0 0 0 0 0 0 0 0 0 0 0 0 0 0 0 0 0 0 0 0 0 0 0 0 0 0
0 0 0 0 0 0 0 0 0 0 0 0 0 0 0 0 0 0 0 0 0 0 0 0 0 0 0 0 0 0 0 0 0 0 0 0 0 0 0 0 0 0 0 0 0 0 0 0 0 0 0 0 0 0
0 0 0 0 0 0 0 0 0 0 0 0 0 0 0 0 0 0 0 0 0 0 0 0 0 0 0 0 0 0 0 0 0 0 0 0 0 0 0 0 0 0 0 0 0 0 0 0 0 0 0 0 0 0
0 0 0 0 0 0 0 0 0 0 0 0 0 0 0 0 0 0 0 0 0 0 0 0 0 0 0 0 0 0 0 0 0 0 0 0 0 0 0 0 0 0 0 0 0 0 0 0 0 0 0 0 0 0
0 0 0 0 0 0 0 0 -0 0 0 0 0 0 0 0 0 0 0 0 0 0 0 0 0 0 0 0 0 0 0 0 0 0 0 0 0 0 0 0 0 0 0 0 0 0 0 0 0 0 0 0 0 0
0 -0 -0 0 0 0 0 0 0 -0 -0 0 0 0 0 0 0 0 0 0 0 0 0 0 0 0 0 0 0 0 0 0 0 0 0 0 0 0 0 0 0 0 0 0 0 0 0 0 0 0 0 0 0 0
0 0 0 0 0 0 0 0 -0 -0 -0 0 0 0 0 -0 0 0 0 0 0 0 0 0 0 0 0 0 0 0 0 0 0 0 0 0 0 0 0 0 0 0 0 0 0 0 0 0 0 0 0 0 0 0
0 0 0 0 0 0 0 0 0 0 0 0 0 0 0 0 0 0 0 0 0 0 0 0 0 0 0 0 0 0 0 0 0 0 0 0 0 0 0 0 0 0 0 0 0 0 0 0 0 0 0 0 0 0
0 0 0 0 0 0 0 0 0 0 0 0 0 0 0 0 0 0 0 0 0 0 0 0 0 0 0 0 0 0 0 0 0 0 0 0 0 0 0 0 0 0 0 0 0 0 0 0 0 0 0 0 0 0
0 0 0 0 0 0 0 0 0 0 0 0 0 0 0 0 0 0 0 0 0 0 0 0 0 0 0 0 0 0 0 0 0 0 0 0 0 0 0 0 0 0 0 0 0 0 0 0 0 0 0 0 0 0
-0 0 0 0 0 0 -0 -0 0 0 0 0 0 0 0 0 0 0 0 0 0 0 0 0 0 0 0 0 0 0 0 0 0 0 0 0 0 0 0 0 0 0 0 0 0 0 0 0 0 0 0 0 0 0
-0 -0 -0 0 0 -0 -0 -0 -0 0 0 0 0 0 0 0 0 0 0 0 0 0 0 0 0 0 0 0 0 0 0 0 0 0 0 0 0 0 0 0 0 0 0 0 0 0 0 0 0 0 0 0 0 0
Wind_Speed_500mb
57 65 72 79 85 96 102 105 109 109 107 111 110 122 99 106 123 147 142 136 132 50 43 81 64 75 53 71 22 45 22 10 9 12 14 12 12 18 9 15 19 25 26 15 18 20 37 33 17 19 6 6 18 44
51 63 71 79 86 91 103 102 104 108 109 110 108 124 89 106 123 133 116 125 112 64 35 59 65 77 103 115 73 81 13 39 23 12 9 9 7 8 12 13 14 15 16 17 29 18 5 86 21 47 13 14 29 45
55 73 78 80 85 86 80 84 87 97 104 99 108 107 90 96 113 156 115 130 92 38 29 34 44 55 65 79 93 34 26 45 38 35 14 7 11 12 15 14 11 12 11 8 8 16 22 58 62 37 32 19 32 43
19 22 44 49 43 40 44 58 78 85 94 92 105 90 107 91 92 137 107 122 100 40 11 7 36 48 65 70 77 60 82 63 68 45 12 7 7 18 9 4 17 10 32 17 11 11 6 42 78 58 51 36 44 47
17 19 16 25 36 42 52 57 62 64 78 80 80 80 105 82 136 132 102 113 94 53 9 14 32 24 48 70 76 59 69 79 56 13 6 6 9 9 1 4 11 21 16 20 20 33 41 23 78 78 62 58 63 58
18 21 26 29 35 51 53 57 64 71 72 66 71 76 89 132 146 115 38 69 83 53 25 8 14 19 33 45 43 53 74 52 28 15 7 8 10 7 10 9 8 66 57 55 15 28 60 33 25 66 84 73 69 63
21 23 27 32 47 51 36 48 72 82 72 60 69 53 142 160 148 105 44 79 88 62 24 9 7 19 50 55 34 51 45 28 16 13 7 12 9 12 2 8 8 59 67 67 54 27 22 36 22 40 73 80 66 66
26 23 29 33 53 48 54 41 51 68 71 44 37 99 120 125 98 54 43 112 82 41 24 10 6 10 15 14 11 15 13 13 10 12 11 6 13 4 9 13 33 21 46 51 57 42 26 23 43 33 56 77 72 73
28 29 33 38 39 49 40 37 58 64 56 48 81 116 108 80 31 49 96 85 71 24 10 7 14 10 21 9 15 11 10 6 6 4 5 13 7 12 12 18 26 46 47 30 53 54 42 30 36 42 58 75 78 80
28 26 31 28 42 41 60 32 58 72 64 76 63 18 17 27 103 97 38 12 12 16 12 7 20 10 29 13 6 9 8 7 6 3 17 7 8 14 11 14 16 23 44 43 47 41 45 41 45 53 59 66 81 88
25 25 25 20 42 38 61 50 75 92 89 38 16 17 83 58 23 13 7 7 7 8 10 10 12 19 12 6 7 7 6 6 8 7 8 6 8 6 11 29 24 19 27 41 45 42 51 58 57 57 58 64 73 73
22 29 28 35 38 52 51 67 34 58 28 23 59 44 22 15 16 12 5 4 11 7 7 10 17 19 20 14 8 5 6 4 9 17 7 7 3 1 6 11 27 39 30 35 43 37 25 35 41 46 51 56 60 60
27 39 48 43 52 71 67 84 88 73 78 64 19 14 16 15 19 9 6 6 9 5 13 21 14 18 14 14 7 5 6 5 21 6 9 5 6 8 14 9 8 21 35 33 32 35 29 28 35 38 48 51 50 54
29 31 41 46 47 42 42 30 30 29 27 22 10 15 10 10 9 6 5 4 2 6 40 23 10 9 13 6 6 10 3 7 5 7 11 4 11 15 12 10 1 10 23 33 32 30 28 28 31 36 38 41 49 56
30 46 43 39 40 37 36 36 21 20 16 16 14 13 12 2 8 7 5 8 12 19 22 20 20 14 6 10 5 11 7 10 13 4 5 17 23 19 13 7 8 14 21 27 29 27 26 27 29 34 39 44 48 51
36 44 54 43 43 37 27 25 49 36 21 18 26 9 7 6 7 7 13 17 24 11 8 11 9 9 7 9 8 6 19 10 4 4 11 15 18 18 16 15 18 18 20 28 33 33 33 32 32 38 47 51 50 45
33 39 41 43 42 37 50 50 26 28 23 17 12 30 17 11 6 12 21 21 18 9 6 7 9 6 7 7 6 9 5 4 7 10 13 14 16 21 23 22 26 27 26 29 31 33 35 39 38 37 39 42 40 39
47 32 34 34 20 53 64 40 22 24 16 26 8 13 26 24 12 25 25 32 12 9 8 7 7 11 8 6 5 3 9 14 16 14 18 20 20 17 24 26 24 24 23 24 24 24 25 29 33 32 30 30 30 29
31 31 33 37 40 27 19 26 24 11 16 12 13 18 23 24 49 39 26 38 43 31 22 13 14 7 5 4 7 10 9 9 10 16 22 22 19 18 21 22 18 17 18 17 15 14 14 15 18 20 20 21 22 23
27 27 36 35 18 19 19 23 19 21 10 13 17 20 15 18 22 38 59 53 41 19 18 11 8 3 4 13 12 8 9 13 17 18 18 13 14 16 15 15 15 14 13 12 11 10 9 9 10 11 12 14 15 17
34 39 32 30 44 33 20 13 18 13 15 11 10 13 15 26 28 34 38 39 34 19 9 16 8 11 17 19 15 15 22 20 18 12 10 8 8 9 9 9 8 4 3 3 5 4 5 6 7 9 12 14 16 19
36 34 27 31 21 16 20 23 15 12 11 14 10 13 16 8 16 25 22 41 17 16 11 7 11 18 19 16 16 19 20 16 9 6 6 6 4 3 2 1 1 5 8 8 8 10 12 12 12 14 17 20 21 23
24 18 19 21 15 17 7 10 9 10 8 5 8 8 7 8 11 13 14 16 13 22 16 11 11 15 15 20 24 19 11 7 7 5 3 2 2 4 5 6 9 11 13 14 14 16 16 17 19 20 21 23 25 26
22 17 21 18 25 6 8 17 12 11 12 8 7 7 7 8 10 12 10 9 13 21 23 23 18 14 13 10 13 12 9 8 6 7 5 5 5 5 5 8 9 11 13 15 15 15 15 16 17 19 20 22 24 26
12 29 21 16 21 13 14 11 13 9 9 9 7 7 5 12 7 10 7 11 23 29 27 23 22 18 13 8 9 12 13 12 10 10 9 6 7 10 14 16 16 15 14 14 10 9 11 13 16 19 22 25 27 28
18 23 15 8 13 9 6 8 10 8 5 8 8 5 8 6 10 8 3 11 13 21 26 26 23 16 11 15 16 13 14 15 15 13 11 13 14 14 12 12 10 11 12 14 16 18 20 24 28 30 31 31 33 33
13 10 17 21 7 8 11 13 10 9 10 8 6 8 7 11 8 2 3 11 14 20 23 23 21 19 18 15 13 15 18 18 16 14 10 8 8 10 14 15 16 15 16 19 22 28 32 33 35 34 35 33 31 33
13 19 10 21 19 23 8 7 9 6 3 4 2 12 8 5 3 5 7 11 11 18 25 23 23 20 19 18 19 22 19 17 15 11 8 8 15 18 19 16 17 24 31 35 37 36 37 38 37 36 38 40 36 33
15 12 9 12 12 18 17 7 5 7 9 2 6 5 7 11 30 32 29 32 22 30 33 26 23 19 19 22 27 23 19 17 15 13 12 15 14 17 22 28 31 33 37 38 36 39 39 40 40 43 44 44 43 43
15 18 10 10 10 10 18 16 14 22 28 26 28 53 51 42 34 31 31 36 36 40 46 41 32 24 25 27 21 20 19 23 26 27 28 26 27 25 26 28 28 30 33 36 37 36 37 41 42 44 47 48 49 51
10 13 15 17 12 13 29 44 52 55 55 52 50 45 29 20 23 24 26 35 38 38 40 40 34 26 27 31 22 22 20 22 24 27 30 33 34 34 34 33 34 35 36 37 38 39 40 40 41 44 44 45 44 46
17 17 10 8 5 11 11 11 14 13 10 9 11 11 10 9 9 11 22 30 34 40 47 44 41 30 24 29 21 30 30 28 31 35 39 41 42 41 41 41 41 41 40 41 42 44 45 47 48 49 50 50 49 48
23 29 21 13 7 4 6 7 7 8 10 7 9 11 10 7 9 16 19 28 36 36 50 44 41 31 30 27 23 31 29 29 33 38 42 43 44 43 43 42 41 41 42 43 45 46 48 50 52 52 52 51 50 48
Wind_Direction_500mb
230 238 245 247 250 253 253 252 253 250 248 247 245 251 248 236 226 220 213 203 192 194 177 189 181 170 168 169 157 153 121 189 159 161 168 179 187 204 175 158 172 169 171 190 206 221 254 151 137 195 187 174 179 170
248 250 254 254 258 258 258 256 250 249 246 248 248 249 249 237 222 223 211 203 195 192 172 186 193 189 189 176 160 170 169 151 153 144 178 137 167 164 162 210 189 203 194 175 192 209 145 178 204 200 184 188 179 180
267 261 255 257 254 254 251 249 245 244 244 242 244 244 239 235 222 210 199 181 182 156 113 154 176 174 190 192 189 146 163 178 168 165 146 156 189 157 176 225 151 226 181 194 151 192 213 203 214 216 207 206 194 190
318 323 257 253 248 245 250 256 251 245 236 238 247 241 226 213 204 188 185 180 180 143 110 102 153 164 183 184 187 199 185 170 165 160 119 166 188 201 198 142 204 166 151 163 271 258 287 233 219 223 209 209 193 182
299 302 296 264 252 263 270 259 246 236 230 241 239 247 231 202 192 186 183 179 182 172 125 119 115 127 168 180 183 180 176 159 150 139 133 170 124 145 85 249 212 185 163 183 216 199 207 217 225 216 206 203 193 182
304 298 298 284 272 277 272 261 247 240 231 230 246 237 206 192 171 163 143 173 179 161 109 106 89 120 155 170 162 156 160 148 143 133 133 161 183 192 192 221 211 194 204 206 223 213 214 222 213 218 211 205 197 192
315 301 315 301 299 296 280 264 238 234 218 228 232 250 165 165 166 163 168 166 157 136 98 105 89 128 121 128 121 131 133 133 121 112 114 144 160 189 217 218 234 207 214 214 216 199 200 216 217 214 211 207 199 197
331 322 321 315 306 307 298 266 231 207 198 220 243 160 159 155 153 148 165 173 158 116 95 108 90 113 137 132 111 128 110 110 65 115 130 138 131 152 251 234 219 213 217 219 216 212 223 226 214 207 207 202 197 196
343 337 332 326 325 328 326 197 168 168 163 172 145 129 125 134 123 128 146 146 156 110 109 112 139 142 170 129 121 103 115 85 104 104 156 160 162 220 219 203 215 212 205 214 208 215 219 216 209 206 200 195 199 199
343 344 337 344 347 356 39 162 179 172 161 152 134 111 76 114 131 128 129 120 88 75 87 97 123 130 158 164 110 115 86 131 135 126 143 202 247 234 171 193 221 237 230 226 191 204 207 205 204 204 205 204 206 207
356 353 346 14 358 8 19 70 125 157 154 130 50 57 123 124 98 63 70 63 106 81 72 91 101 124 136 100 117 80 129 150 147 166 180 225 259 179 222 220 218 223 220 226 229 239 234 228 214 208 207 206 208 209
15 6 29 26 28 34 35 38 93 133 117 118 122 111 74 56 58 74 59 78 56 117 93 106 128 111 108 116 95 121 107 157 166 137 162 240 186 33 335 237 230 227 223 214 223 228 231 225 226 220 217 212 208 205
46 54 79 61 68 78 81 88 88 91 102 105 80 59 28 4 49 42 91 62 94 132 144 158 132 118 102 91 81 109 108 118 133 171 217 231 104 340 335 313 238 222 218 216 216 222 218 211 208 210 213 207 202 196
67 84 80 83 77 54 55 51 41 36 44 55 50 48 48 32 58 43 51 82 80 154 135 121 91 106 107 86 113 92 67 154 168 208 229 76 360 338 345 342 265 175 189 201 205 203 205 202 198 198 199 201 196 191
81 88 73 51 34 36 39 41 58 103 68 65 41 56 58 18 45 47 101 85 39 94 117 111 78 83 85 103 75 121 141 204 209 226 47 352 348 358 19 53 114 138 154 164 169 175 179 184 187 188 183 183 184 186
101 80 54 37 28 27 45 46 59 53 60 60 47 93 62 77 32 14 28 58 36 66 97 76 94 82 83 112 141 181 158 186 109 19 347 355 29 52 66 84 102 119 138 143 145 147 149 149 156 166 168 171 176 183
94 54 37 38 43 50 62 61 49 49 49 44 36 31 52 73 64 58 30 14 31 21 55 36 69 64 123 106 93 3 57 54 6 26 44 47 61 79 85 95 103 108 115 119 121 125 133 137 142 153 164 171 180 188
65 40 30 25 40 65 55 39 62 58 69 42 57 15 57 53 33 30 24 32 54 68 54 76 65 54 39 84 104 45 63 71 65 87 90 85 80 85 100 101 100 105 110 113 118 128 138 145 149 158 169 178 185 192
53 37 32 31 34 54 53 35 38 93 83 100 72 54 66 73 51 48 54 66 77 93 91 55 59 56 67 60 61 48 58 100 105 86 86 95 97 88 83 93 96 102 106 112 122 135 150 155 156 160 174 183 192 198
40 33 34 22 56 55 53 35 43 61 33 33 34 41 67 70 41 36 43 49 56 52 47 48 45 50 81 69 64 74 69 86 104 99 88 89 99 97 95 90 89 91 94 105 115 139 149 162 159 163 181 194 204 214
44 47 53 65 58 65 73 55 58 70 111 61 33 27 44 36 32 26 24 28 55 35 58 50 49 62 80 88 95 91 80 83 87 97 109 101 101 95 92 92 86 76 81 153 193 182 204 206 202 211 220 224 227 234
28 37 43 47 65 74 76 43 90 111 110 111 72 50 45 34 19 21 32 45 57 27 28 23 69 87 91 94 86 81 75 70 76 80 80 88 73 36 9 18 334 267 259 257 259 257 255 255 253 252 251 252 251 250
18 32 48 40 70 54 41 38 87 40 73 38 58 56 42 50 39 28 70 57 71 14 23 46 102 104 83 63 53 53 54 42 28 23 26 25 336 301 285 271 260 262 271 278 272 269 272 274 272 270 269 268 265 263
30 49 32 39 34 47 24 29 42 51 60 47 61 72 40 12 35 71 87 87 22 26 36 41 59 74 71 55 27 21 13 11 359 334 349 355 331 311 303 289 284 286 290 292 292 289 284 281 280 280 278 274 272 270
63 11 20 9 19 32 32 17 5 37 59 15 67 52 17 7 63 52 51 10 11 22 26 33 39 42 39 19 2 359 347 346 355 7 345 339 334 329 319 306 300 293 293 294 288 280 274 274 276 278 280 280 279 279
65 12 37 348 9 49 347 53 31 21 31 59 42 356 27 62 63 55 43 359 8 13 11 12 15 25 23 3 2 9 8 2 359 356 347 335 332 332 331 328 324 302 290 280 279 279 280 282 286 287 285 284 284 283
58 355 29 30 31 69 70 62 62 60 55 37 340 17 51 63 62 7 56 28 26 15 9 7 6 6 9 17 20 12 2 357 352 342 337 347 356 347 328 317 309 297 288 287 291 293 292 290 288 287 285 282 282 280
68 31 60 3 48 36 91 49 37 37 317 11 55 36 87 98 143 110 91 51 39 33 12 4 6 10 18 20 11 9 6 360 5 14 5 334 321 319 312 306 298 294 294 294 295 294 293 292 291 289 287 286 285 281
45 18 41 34 52 48 43 51 353 353 338 22 103 97 119 85 122 106 75 54 51 33 33 36 36 31 26 10 355 11 19 24 15 354 326 322 322 314 308 305 301 297 296 296 295 295 294 292 291 288 288 289 289 287
25 22 80 55 54 43 17 41 54 71 74 82 95 109 109 113 102 79 60 40 35 31 29 25 21 26 26 28 29 22 20 13 7 2 354 345 334 324 313 306 301 296 293 292 292 289 287 288 288 288 289 291 292 292
36 41 58 57 79 92 83 81 79 81 87 93 106 102 108 115 97 65 46 28 25 24 25 29 27 20 16 9 15 16 8 359 354 346 337 332 328 323 316 311 306 302 299 297 296 296 296 294 293 292 291 291 290 290
52 64 95 90 120 129 99 85 78 82 73 72 62 80 80 85 75 50 17 8 11 18 18 14 12 15 6 356 353 352 348 344 340 337 334 331 329 325 322 319 315 311 309 307 306 305 304 304 304 303 302 300 299 299
76 83 92 102 100 115 86 96 80 93 59 63 57 55 61 74 92 29 7 360 0 0 2 7 9 7 5 359 355 347 343 338 335 332 329 327 326 325 323 320 316 313 310 307 306 306 307 307 305 304 302 302 301 300
Wind_Speed_850mb
57 65 72 79 85 96 102 105 109 109 107 111 110 122 99 106 123 147 142 136 132 50 43 81 64 75 53 71 22 45 22 10 9 12 14 12 12 18 9 15 19 25 26 15 18 20 37 33 17 19 6 6 18 44
51 63 71 79 86 91 103 102 104 108 109 110 108 124 89 106 123 133 116 125 112 64 35 59 65 77 103 115 73 81 13 39 23 12 9 9 7 8 12 13 14 15 16 17 29 18 5 86 21 47 13 14 29 45
55 73 78 80 85 86 80 84 87 97 104 99 108 107 90 96 113 156 115 130 92 38 29 34 44 55 65 79 93 34 26 45 38 35 14 7 11 12 15 14 11 12 11 8 8 16 22 58 62 37 32 19 32 43
19 22 44 49 43 40 44 58 78 85 94 92 105 90 107 91 92 137 107 122 100 40 11 7 36 48 65 70 77 60 82 63 68 45 12 7 7 18 9 4 17 10 32 17 11 11 6 42 78 58 51 36 44 47
17 19 16 25 36 42 52 57 62 64 78 80 80 80 105 82 136 132 102 113 94 53 9 14 32 24 48 70 76 59 69 79 56 13 6 6 9 9 1 4 11 21 16 20 20 33 41 23 78 78 62 58 63 58
18 21 26 29 35 51 53 57 64 71 72 66 71 76 89 132 146 115 38 69 83 53 25 8 14 19 33 45 43 53 74 52 28 15 7 8 10 7 10 9 8 66 57 55 15 28 60 33 25 66 84 73 69 63
21 23 27 32 47 51 36 48 72 82 72 60 69 53 142 160 148 105 44 79 88 62 24 9 7 19 50 55 34 51 45 28 16 13 7 12 9 12 2 8 8 59 67 67 54 27 22 36 22 40 73 80 66 66
26 23 29 33 53 48 54 41 51 68 71 44 37 99 120 125 98 54 43 112 82 41 24 10 6 10 15 14 11 15 13 13 10 12 11 6 13 4 9 13 33 21 46 51 57 42 26 23 43 33 56 77 72 73
28 29 33 38 39 49 40 37 58 64 56 48 81 116 108 80 31 49 96 85 71 24 10 7 14 10 21 9 15 11 10 6 6 4 5 13 7 12 12 18 26 46 47 30 53 54 42 30 36 42 58 75 78 80
28 26 31 28 42 41 60 32 58 72 64 76 63 18 17 27 103 97 38 12 12 16 12 7 20 10 29 13 6 9 8 7 6 3 17 7 8 14 11 14 16 23 44 43 47 41 45 41 45 53 59 66 81 88
25 25 25 20 42 38 61 50 75 92 89 38 16 17 83 58 23 13 7 7 7 8 10 10 12 19 12 6 7 7 6 6 8 7 8 6 8 6 11 29 24 19 27 41 45 42 51 58 57 57 58 64 73 73
22 29 28 35 38 52 51 67 34 58 28 23 59 44 22 15 16 12 5 4 11 7 7 10 17 19 20 14 8 5 6 4 9 17 7 7 3 1 6 11 27 39 30 35 43 37 25 35 41 46 51 56 60 60
27 39 48 43 52 71 67 84 88 73 78 64 19 14 16 15 19 9 6 6 9 5 13 21 14 18 14 14 7 5 6 5 21 6 9 5 6 8 14 9 8 21 35 33 32 35 29 28 35 38 48 51 50 54
29 31 41 46 47 42 42 30 30 29 27 22 10 15 10 10 9 6 5 4 2 6 40 23 10 9 13 6 6 10 3 7 5 7 11 4 11 15 12 10 1 10 23 33 32 30 28 28 31 36 38 41 49 56
30 46 43 39 40 37 36 36 21 20 16 16 14 13 12 2 8 7 5 8 12 19 22 20 20 14 6 10 5 11 7 10 13 4 5 17 23 19 13 7 8 14 21 27 29 27 26 27 29 34 39 44 48 51
36 44 54 43 43 37 27 25 49 36 21 18 26 9 7 6 7 7 13 17 24 11 8 11 9 9 7 9 8 6 19 10 4 4 11 15 18 18 16 15 18 18 20 28 33 33 33 32 32 38 47 51 50 45
33 39 41 43 42 37 50 50 26 28 23 17 12 30 17 11 6 12 21 21 18 9 6 7 9 6 7 7 6 9 5 4 7 10 13 14 16 21 23 22 26 27 26 29 31 33 35 39 38 37 39 42 40 39
47 32 34 34 20 53 64 40 22 24 16 26 8 13 26 24 12 25 25 32 12 9 8 7 7 11 8 6 5 3 9 14 16 14 18 20 20 17 24 26 24 24 23 24 24 24 25 29 33 32 30 30 30 29
31 31 33 37 40 27 19 26 24 11 16 12 13 18 23 24 49 39 26 38 43 31 22 13 14 7 5 4 7 10 9 9 10 16 22 22 19 18 21 22 18 17 18 17 15 14 14 15 18 20 20 21 22 23
27 27 36 35 18 19 19 23 19 21 10 13 17 20 15 18 22 38 59 53 41 19 18 11 8 3 4 13 12 8 9 13 17 18 18 13 14 16 15 15 15 14 13 12 11 10 9 9 10 11 12 14 15 17
34 39 32 30 44 33 20 13 18 13 15 11 10 13 15 26 28 34 38 39 34 19 9 16 8 11 17 19 15 15 22 20 18 12 10 8 8 9 9 9 8 4 3 3 5 4 5 6 7 9 12 14 16 19
36 34 27 31 21 16 20 23 15 12 11 14 10 13 16 8 16 25 22 41 17 16 11 7 11 18 19 16 16 19 20 16 9 6 6 6 4 3 2 1 1 5 8 8 8 10 12 12 12 14 17 20 21 23
24 18 19 21 15 17 7 10 9 10 8 5 8 8 7 8 11 13 14 16 13 22 16 11 11 15 15 20 24 19 11 7 7 5 3 2 2 4 5 6 9 11 13 14 14 16 16 17 19 20 21 23 25 26
22 17 21 18 25 6 8 17 12 11 12 8 7 7 7 8 10 12 10 9 13 21 23 23 18 14 13 10 13 12 9 8 6 7 5 5 5 5 5 8 9 11 13 15 15 15 15 16 17 19 20 22 24 26
12 29 21 16 21 13 14 11 13 9 9 9 7 7 5 12 7 10 7 11 23 29 27 23 22 18 13 8 9 12 13 12 10 10 9 6 7 10 14 16 16 15 14 14 10 9 11 13 16 19 22 25 27 28
18 23 15 8 13 9 6 8 10 8 5 8 8 5 8 6 10 8 3 11 13 21 26 26 23 16 11 15 16 13 14 15 15 13 11 13 14 14 12 12 10 11 12 14 16 18 20 24 28 30 31 31 33 33
13 10 17 21 7 8 11 13 10 9 10 8 6 8 7 11 8 2 3 11 14 20 23 23 21 19 18 15 13 15 18 18 16 14 10 8 8 10 14 15 16 15 16 19 22 28 32 33 35 34 35 33 31 33
13 19 10 21 19 23 8 7 9 6 3 4 2 12 8 5 3 5 7 11 11 18 25 23 23 20 19 18 19 22 19 17 15 11 8 8 15 18 19 16 17 24 31 35 37 36 37 38 37 36 38 40 36 33
15 12 9 12 12 18 17 7 5 7 9 2 6 5 7 11 30 32 29 32 22 30 33 26 23 19 19 22 27 23 19 17 15 13 12 15 14 17 22 28 31 33 37 38 36 39 39 40 40 43 44 44 43 43
15 18 10 10 10 10 18 16 14 22 28 26 28 53 51 42 34 31 31 36 36 40 46 41 32 24 25 27 21 20 19 23 26 27 28 26 27 25 26 28 28 30 33 36 37 36 37 41 42 44 47 48 49 51
10 13 15 17 12 13 29 44 52 55 55 52 50 45 29 20 23 24 26 35 38 38 40 40 34 26 27 31 22 22 20 22 24 27 30 33 34 34 34 33 34 35 36 37 38 39 40 40 41 44 44 45 44 46
17 17 10 8 5 11 11 11 14 13 10 9 11 11 10 9 9 11 22 30 34 40 47 44 41 30 24 29 21 30 30 28 31 35 39 41 42 41 41 41 41 41 40 41 42 44 45 47 48 49 50 50 49 48
23 29 21 13 7 4 6 7 7 8 10 7 9 11 10 7 9 16 19 28 36 36 50 44 41 31 30 27 23 31 29 29 33 38 42 43 44 43 43 42 41 41 42 43 45 46 48 50 52 52 52 51 50 48
Wind_Direction_850mb
230 238 245 247 250 253 253 252 253 250 248 247 245 251 248 236 226 220 213 203 192 194 177 189 181 170 168 169 157 153 121 189 159 161 168 179 187 204 175 158 172 169 171 190 206 221 254 151 137 195 187 174 179 170
248 250 254 254 258 258 258 256 250 249 246 248 248 249 249 237 222 223 211 203 195 192 172 186 193 189 189 176 160 170 169 151 153 144 178 137 167 164 162 210 189 203 194 175 192 209 145 178 204 200 184 188 179 180
267 261 255 257 254 254 251 249 245 244 244 242 244 244 239 235 222 210 199 181 182 156 113 154 176 174 190 192 189 146 163 178 168 165 146 156 189 157 176 225 151 226 181 194 151 192 213 203 214 216 207 206 194 190
318 323 257 253 248 245 250 256 251 245 236 238 247 241 226 213 204 188 185 180 180 143 110 102 153 164 183 184 187 199 185 170 165 160 119 166 188 201 198 142 204 166 151 163 271 258 287 233 219 223 209 209 193 182
299 302 296 264 252 263 270 259 246 236 230 241 239 247 231 202 192 186 183 179 182 172 125 119 115 127 168 180 183 180 176 159 150 139 133 170 124 145 85 249 212 185 163 183 216 199 207 217 225 216 206 203 193 182
304 298 298 284 272 277 272 261 247 240 231 230 246 237 206 192 171 163 143 173 179 161 109 106 89 120 155 170 162 156 160 148 143 133 133 161 183 192 192 221 211 194 204 206 223 213 214 222 213 218 211 205 197 192
315 301 315 301 299 296 280 264 238 234 218 228 232 250 165 165 166 163 168 166 157 136 98 105 89 128 121 128 121 131 133 133 121 112 114 144 160 189 217 218 234 207 214 214 216 199 200 216 217 214 211 207 199 197
331 322 321 315 306 307 298 266 231 207 198 220 243 160 159 155 153 148 165 173 158 116 95 108 90 113 137 132 111 128 110 110 65 115 130 138 131 152 251 234 219 213 217 219 216 212 223 226 214 207 207 202 197 196
343 337 332 326 325 328 326 197 168 168 163 172 145 129 125 134 123 128 146 146 156 110 109 112 139 142 170 129 121 103 115 85 104 104 156 160 162 220 219 203 215 212 205 214 208 215 219 216 209 206 200 195 199 199
343 344 337 344 347 356 39 162 179 172 161 152 134 111 76 114 131 128 129 120 88 75 87 97 123 130 158 164 110 115 86 131 135 126 143 202 247 234 171 193 221 237 230 226 191 204 207 205 204 204 205 204 206 207
356 353 346 14 358 8 19 70 125 157 154 130 50 57 123 124 98 63 70 63 106 81 72 91 101 124 136 100 117 80 129 150 147 166 180 225 259 179 222 220 218 223 220 226 229 239 234 228 214 208 207 206 208 209
15 6 29 26 28 34 35 38 93 133 117 118 122 111 74 56 58 74 59 78 56 117 93 106 128 111 108 116 95 121 107 157 166 137 162 240 186 33 335 237 230 227 223 214 223 228 231 225 226 220 217 212 208 205
46 54 79 61 68 78 81 88 88 91 102 105 80 59 28 4 49 42 91 62 94 132 144 158 132 118 102 91 81 109 108 118 133 171 217 231 104 340 335 313 238 222 218 216 216 222 218 211 208 210 213 207 202 196
67 84 80 83 77 54 55 51 41 36 44 55 50 48 48 32 58 43 51 82 80 154 135 121 91 106 107 86 113 92 67 154 168 208 229 76 360 338 345 342 265 175 189 201 205 203 205 202 198 198 199 201 196 191
81 88 73 51 34 36 39 41 58 103 68 65 41 56 58 18 45 47 101 85 39 94 117 111 78 83 85 103 75 121 141 204 209 226 47 352 348 358 19 53 114 138 154 164 169 175 179 184 187 188 183 183 184 186
101 80 54 37 28 27 45 46 59 53 60 60 47 93 62 77 32 14 28 58 36 66 97 76 94 82 83 112 141 181 158 186 109 19 347 355 29 52 66 84 102 119 138 143 145 147 149 149 156 166 168 171 176 183
94 54 37 38 43 50 62 61 49 49 49 44 36 31 52 73 64 58 30 14 31 21 55 36 69 64 123 106 93 3 57 54 6 26 44 47 61 79 85 95 103 108 115 119 121 125 133 137 142 153 164 171 180 188
65 40 30 25 40 65 55 39 62 58 69 42 57 15 57 53 33 30 24 32 54 68 54 76 65 54 39 84 104 45 63 71 65 87 90 85 80 85 100 101 100 105 110 113 118 128 138 145 149 158 169 178 185 192
53 37 32 31 34 54 53 35 38 93 83 100 72 54 66 73 51 48 54 66 77 93 91 55 59 56 67 60 61 48 58 100 105 86 86 95 97 88 83 93 96 102 106 112 122 135 150 155 156 160 174 183 192 198
40 33 34 22 56 55 53 35 43 61 33 33 34 41 67 70 41 36 43 49 56 52 47 48 45 50 81 69 64 74 69 86 104 99 88 89 99 97 95 90 89 91 94 105 115 139 149 162 159 163 181 194 204 214
44 47 53 65 58 65 73 55 58 70 111 61 33 27 44 36 32 26 24 28 55 35 58 50 49 62 80 88 95 91 80 83 87 97 109 101 101 95 92 92 86 76 81 153 193 182 204 206 202 211 220 224 227 234
28 37 43 47 65 74 76 43 90 111 110 111 72 50 45 34 19 21 32 45 57 27 28 23 69 87 91 94 86 81 75 70 76 80 80 88 73 36 9 18 334 267 259 257 259 257 255 255 253 252 251 252 251 250
18 32 48 40 70 54 41 38 87 40 73 38 58 56 42 50 39 28 70 57 71 14 23 46 102 104 83 63 53 53 54 42 28 23 26 25 336 301 285 271 260 262 271 278 272 269 272 274 272 270 269 268 265 263
30 49 32 39 34 47 24 29 42 51 60 47 61 72 40 12 35 71 87 87 22 26 36 41 59 74 71 55 27 21 13 11 359 334 349 355 331 311 303 289 284 286 290 292 292 289 284 281 280 280 278 274 272 270
63 11 20 9 19 32 32 17 5 37 59 15 67 52 17 7 63 52 51 10 11 22 26 33 39 42 39 19 2 359 347 346 355 7 345 339 334 329 319 306 300 293 293 294 288 280 274 274 276 278 280 280 279 279
65 12 37 348 9 49 347 53 31 21 31 59 42 356 27 62 63 55 43 359 8 13 11 12 15 25 23 3 2 9 8 2 359 356 347 335 332 332 331 328 324 302 290 280 279 279 280 282 286 287 285 284 284 283
58 355 29 30 31 69 70 62 62 60 55 37 340 17 51 63 62 7 56 28 26 15 9 7 6 6 9 17 20 12 2 357 352 342 337 347 356 347 328 317 309 297 288 287 291 293 292 290 288 287 285 282 282 280
68 31 60 3 48 36 91 49 37 37 317 11 55 36 87 98 143 110 91 51 39 33 12 4 6 10 18 20 11 9 6 360 5 14 5 334 321 319 312 306 298 294 294 294 295 294 293 292 291 289 287 286 285 281
45 18 41 34 52 48 43 51 353 353 338 22 103 97 119 85 122 106 75 54 51 33 33 36 36 31 26 10 355 11 19 24 15 354 326 322 322 314 308 305 301 297 296 296 295 295 294 292 291 288 288 289 289 287
25 22 80 55 54 43 17 41 54 71 74 82 95 109 109 113 102 79 60 40 35 31 29 25 21 26 26 28 29 22 20 13 7 2 354 345 334 324 313 306 301 296 293 292 292 289 287 288 288 288 289 291 292 292
36 41 58 57 79 92 83 81 79 81 87 93 106 102 108 115 97 65 46 28 25 24 25 29 27 20 16 9 15 16 8 359 354 346 337 332 328 323 316 311 306 302 299 297 296 296 296 294 293 292 291 291 290 290
52 64 95 90 120 129 99 85 78 82 73 72 62 80 80 85 75 50 17 8 11 18 18 14 12 15 6 356 353 352 348 344 340 337 334 331 329 325 322 319 315 311 309 307 306 305 304 304 304 303 302 300 299 299
76 83 92 102 100 115 86 96 80 93 59 63 57 55 61 74 92 29 7 360 0 0 2 7 9 7 5 359 355 347 343 338 335 332 329 327 326 325 323 320 316 313 310 307 306 306 307 307 305 304 302 302 301 300